Regional Weather Roundup
Issued by NWS

Home | Current Version | Previous Version | Graphics & Text | Print | Product List | Glossary On
Versions: 1 2 3 4 5 6 7 8 9 10 11 12 13 14 15 16 17 18 19 20 21 22 23 24 25 26 27 28 29 30 31 32 33 34 35 36 37 38 39 40 41 42 43 44 45 46 47 48 49 50
000
ASUS43 KFSD 272002
RWRSD

WEATHER ROUNDUP FOR SOUTH DAKOTA
NATIONAL WEATHER SERVICE SIOUX FALLS SD
200 PM CST TUE JAN 27 2015

NOTE: "FAIR" INDICATES FEW OR NO CLOUDS BELOW 12,000 FEET WITH NO
SIGNIFICANT WEATHER AND/OR OBSTRUCTIONS TO VISIBILITY.


SDZ001>005-009-010-012>017-272100-
NORTHWEST AND NORTH CENTRAL SOUTH DAKOTA

CITY           SKY/WX    TMP DP  RH WIND       PRES   REMARKS
BUFFALO          N/A     67  31  26 W13       29.82F
FAITH            N/A     69  26  20 W13       29.86F
MOBRIDGE       SUNNY     49  36  61 SE7       29.84F
$$

SDZ012>016-024>037-041>051-057-063-072>074-272100-
SOUTHWEST AND SOUTH CENTRAL SOUTH DAKOTA

CITY           SKY/WX    TMP DP  RH WIND       PRES   REMARKS
RAPID CTY ARPT NOT AVBL
PIERRE         SUNNY     53  34  48 S8        29.88F
CUSTER         SUNNY     63  20  19 W13G21    30.01F
ELLSWORTH AFB  SUNNY     73  26  17 SE5       29.90F
PHILIP         SUNNY     69  31  24 SW6       29.88F
PINE RIDGE     SUNNY     65  32  29 SW10      29.95F
WINNER         FAIR      62  35  36 SE5       29.90F
$$

SDZ004>011-016>023-039-040-272100-
NORTHEAST SOUTH DAKOTA

CITY           SKY/WX    TMP DP  RH WIND       PRES   REMARKS
ABERDEEN       SUNNY     43  36  76 S16       29.94F
WATERTOWN      MOSUNNY   34  31  88 SE14      29.99F WCI  25
SISSETON         N/A     30  30 100 S18       30.01F WCI  18
$$

SDZ017-020-022-023-036>040-048>070-272100-
SOUTHEAST SOUTH DAKOTA

CITY           SKY/WX    TMP DP  RH WIND       PRES   REMARKS
SIOUX FALLS    PTSUNNY   34  32  92 SE13      30.04F WCI  25
HURON          SUNNY     45  37  73 SE16G22   29.94F
MITCHELL       SUNNY     48  38  68 S13       29.97F
YANKTON        SUNNY     50  36  57 SE15      30.00F
$$

ABBREVIATIONS USED IN REMARKS
   TC - TEMPERATURE IN CELSIUS
  WCI - WIND CHILL INDEX
   HX - HEAT INDEX
  VSB - VISIBILITY



USA.gov is the U.S. government's official web portal to all federal, state and local government web resources and services.